Tracking 19636 objects as of 25-May-2019
HD Live streaming from Space Station
objects crossing your sky now

SL-14 R/B

Track SL-14 R/B now!
10-day predictions
SL-14 R/B is classified as:


NORAD ID: 17567
Int'l Code: 1987-024B
Perigee: 611.1 km
Apogee: 638.3 km
Inclination: 82.5 °
Period: 97.1 minutes
Semi major axis: 6995 km
RCS: 4.538 m2 (large)
Launch date: March 3, 1987
Source: Commonwealth of Independent States (former USSR) (CIS)
Launch site: PLESETSK MISSILE AND SPACE COMPLEX (PKMTR)

Note: This is a ROCKET BODY
aabbcc
Your satellite tracking list
Your tracking list is empty




NASA's NSSDC Master Catalog

Two Line Element Set (TLE):
1 17567U 87024B   19144.83279571 +.00000071 +00000-0 +56528-5 0  9997
2 17567 082.5301 257.6023 0019449 170.4312 189.7278 14.83733062720162
Source of the keplerian elements: AFSPC